sat.trackr.live / text

‹ back to catalog

STARLINK-4643

NORAD 54824 · 2022-177E

PAYLOAD ACTIVE UNKNOWN

§ Identity

Operator
Country
US
Launch date
2022-12-28
Launch site
AFETR
Launch vehicle
Mass (kg)
RCS (m²)

Purposes: comms

External: N2YO · Heavens-Above · Gunter

§ Orbital elements

Epoch: 2026-05-25T02:51:28.213056Z

Period
94.27 min
Inclination
43.0048°
Eccentricity
0.0001049
Mean motion
15.27581336 rev/d
Perigee alt
482.3 km
Apogee alt
483.8 km
Semi-major
6,861.2 km
B*
2.5291e-5
RAAN
64.3074°
Arg perigee
238.5264°
Mean anomaly
121.5485°
Rev number
18,861

§ Raw data

STARLINK-46431 54824U 22177E   26145.11907654  .00000434  00000+0  25291-4 0  99962 54824  43.0048  64.3074 0001049 238.5264 121.5485 15.27581336188613

JSON: /api/v1/satellites/54824 · /tle

For live sub-satellite position, see the globe view (requires WebGL).

§ Visibility from observer

Set your observer location to see the next 7 days of passes ≥ 10°. The values pass through the URL so the page stays shareable.

No JS? Fill the form by hand. The geolocation button needs JavaScript.